[Date Prev][Date Next][Thread Prev][Thread Next] - [Date Index][Thread Index][Author Index]

2 Line ISS Keps 5-25



ISS
1 25544U 98067A   04146.35701008  .00008281  00000-0  77052-4 0  8510
2 25544  51.6327  82.0836 0006629 151.6134 352.0777 15.68376923314736


----
Via the sarex mailing list at AMSAT.ORG courtesy of AMSAT-NA.
To unsubscribe, send "unsubscribe sarex" to Majordomo@amsat.org



AMSAT Top AMSAT Home